Weather History for KIWI - March, 2013

Change the Weather History Date:

Monday, March 4, 2013

  Actual Average Record
Temperature  
Mean Temperature 32 °F -  
Max Temperature 34 °F 35 °F 55 °F (2008)
Min Temperature 30 °F 17 °F -8 °F (2003)
Degree Days  
Heating Degree Days 33    
Moisture  
Dew Point 25 °F    
Average Humidity 76    
Maximum Humidity 86    
Minimum Humidity 64    
Precipitation  
Precipitation 0.09 in - - ()
Sea Level Pressure  
Sea Level Pressure 29.54 in    
Wind  
Wind Speed 5 mph (NW)    
Max Wind Speed 10 mph    
Max Gust Speed 22 mph    
Visibility 4 miles    
Events Snow    
Averages and records for this station are not official NWS values.
T = Trace of Precipitation, MM = Missing Value Source: NWS Daily Summary

Daily Weather History Graph

Daily Weather History Graph

Search for Another Location

Airport or City:

Trip Planner

Search our weather history database for the weather conditions in past years. The results will help you decide how hot, cold, wet, or windy it might be!

Date:

Astronomy

Mar. 04, 2013 Rise Set
Actual Time 6:10 AM EST 5:31 PM EST
Civil Twilight 5:41 AM EST 6:00 PM EST
Nautical Twilight 5:08 AM EST 6:33 PM EST
Astronomical Twilight 4:34 AM EST 7:07 PM EST
Moon 12:24 AM EST 10:01 AM EST
Length of Visible Light 12h 18m
Length of Day
11h 21m
Waning Gibbous, 52% of the Moon is Illuminated
Mar 4
Waning Gibbous
Mar 4
Last Quarter
Mar 11
New
Mar 19
First Quarter
Mar 27
Full

Hourly Weather History & Observations

Time (EST) Temp. Windchill Dew Point Humidity Pressure Visibility Wind Dir Wind Speed Gust Speed Precip Events Conditions
12:53 AM 34.0 °F 31.0 °F 25.0 °F 70% 29.52 in 10.0 mi Variable 3.5 mph - N/A   Overcast
1:53 AM 34.0 °F - 24.1 °F 67% 29.52 in 10.0 mi Calm Calm - N/A   Overcast
2:53 AM 33.1 °F 30.0 °F 23.0 °F 66% 29.52 in 10.0 mi Variable 3.5 mph - N/A   Overcast
3:53 AM 33.1 °F 30.0 °F 23.0 °F 66% 29.52 in 10.0 mi Variable 3.5 mph - N/A   Overcast
4:53 AM 33.1 °F 27.7 °F 23.0 °F 66% 29.52 in 10.0 mi Variable 5.8 mph - N/A   Overcast
5:53 AM 33.1 °F 26.9 °F 21.9 °F 64% 29.52 in 10.0 mi NW 6.9 mph - N/A   Overcast
6:53 AM 32.0 °F 25.6 °F 24.1 °F 73% 29.52 in 5.0 mi Variable 6.9 mph - 0.00 in Snow Light Snow
7:53 AM 33.1 °F 25.5 °F 21.9 °F 64% 29.53 in 10.0 mi NW 9.2 mph 19.6 mph 0.00 in   Overcast
8:53 AM 33.1 °F 25.5 °F 21.9 °F 64% 29.52 in 10.0 mi WNW 9.2 mph 21.9 mph N/A   Overcast
9:16 AM 32.0 °F 26.4 °F 23.0 °F 69% 29.52 in 1.8 mi Variable 5.8 mph 16.1 mph 0.00 in Snow Light Snow
9:30 AM 32.0 °F 23.6 °F 24.8 °F 75% 29.52 in 3.0 mi NW 10.4 mph 19.6 mph 0.00 in Snow Light Snow
9:53 AM 33.1 °F 27.7 °F 21.9 °F 64% 29.53 in 8.0 mi Variable 5.8 mph - 0.00 in Snow Light Snow
10:31 AM 32.0 °F 24.8 °F 21.2 °F 64% 29.52 in 1.8 mi WNW 8.1 mph 18.4 mph 0.00 in Snow Light Snow
10:39 AM 30.2 °F 24.3 °F 24.8 °F 80% 29.52 in 1.0 mi Variable 5.8 mph - 0.00 in Snow Light Snow
10:53 AM 30.9 °F 25.2 °F 25.0 °F 79% 29.52 in 1.8 mi Variable 5.8 mph - 0.00 in Snow Light Snow
11:46 AM 32.0 °F 23.6 °F 26.6 °F 80% 29.50 in 2.0 mi WNW 10.4 mph 16.1 mph 0.01 in Snow Light Snow
11:53 AM 32.0 °F 24.2 °F 26.1 °F 79% 29.51 in 1.8 mi WNW 9.2 mph 18.4 mph 0.01 in Snow Light Snow
12:38 PM 32.0 °F 27.5 °F 26.6 °F 80% 29.50 in 1.2 mi Variable 4.6 mph - 0.00 in Snow Light Snow
12:53 PM 32.0 °F 28.7 °F 26.1 °F 79% 29.50 in 1.2 mi Variable 3.5 mph - 0.00 in Snow Light Snow
1:00 PM 33.8 °F 30.8 °F 26.6 °F 75% 29.50 in 1.8 mi Variable 3.5 mph - 0.00 in Snow Light Snow
1:16 PM 32.0 °F 26.4 °F 26.6 °F 80% 29.50 in 1.0 mi Variable 5.8 mph 17.3 mph 0.01 in Snow Light Snow
1:34 PM 32.0 °F 25.6 °F 26.6 °F 80% 29.50 in 2.0 mi Variable 6.9 mph - 0.01 in Snow Light Snow
1:41 PM 32.0 °F 26.4 °F 26.6 °F 80% 29.50 in 1.5 mi WNW 5.8 mph - 0.01 in Snow Light Snow
1:50 PM 32.0 °F 25.6 °F 26.6 °F 80% 29.50 in 1.0 mi WNW 6.9 mph - 0.01 in Snow Light Snow
1:53 PM 32.0 °F 26.4 °F 27.0 °F 82% 29.51 in 1.2 mi WNW 5.8 mph - 0.01 in Snow Light Snow
2:53 PM 32.0 °F 26.4 °F 28.0 °F 85% 29.52 in 1.2 mi Variable 5.8 mph - 0.01 in Snow Light Snow
3:00 PM 32.0 °F 26.4 °F 26.6 °F 80% 29.51 in 2.0 mi Variable 5.8 mph - 0.00 in Snow Light Snow
3:09 PM 32.0 °F 27.5 °F 26.6 °F 80% 29.52 in 2.5 mi Variable 4.6 mph - 0.00 in Snow Light Snow
3:18 PM 32.0 °F 26.4 °F 26.6 °F 80% 29.52 in 6.0 mi Variable 5.8 mph - 0.00 in Snow Light Snow
3:53 PM 33.1 °F 26.9 °F 25.0 °F 72% 29.52 in 10.0 mi Variable 6.9 mph - 0.00 in   Overcast
4:53 PM 33.1 °F 30.0 °F 23.0 °F 66% 29.54 in 10.0 mi Variable 3.5 mph - N/A   Mostly Cloudy
5:53 PM 33.1 °F 28.7 °F 23.0 °F 66% 29.56 in 10.0 mi Variable 4.6 mph - N/A   Overcast
6:53 PM 32.0 °F 25.6 °F 24.1 °F 73% 29.59 in 4.0 mi Variable 6.9 mph - 0.00 in Snow Light Snow
7:53 PM 30.9 °F 24.3 °F 26.1 °F 82% 29.60 in 3.0 mi Variable 6.9 mph 19.6 mph 0.00 in Snow Light Snow
8:53 PM 30.9 °F 24.3 °F 27.0 °F 85% 29.62 in 3.0 mi Variable 6.9 mph - 0.01 in Snow Light Snow
9:01 PM 30.2 °F 25.4 °F 26.6 °F 86% 29.62 in 2.0 mi Variable 4.6 mph - 0.00 in Snow Light Snow
9:22 PM 30.2 °F 23.4 °F 26.6 °F 86% 29.63 in 1.5 mi Variable 6.9 mph - 0.00 in Snow Light Snow
9:53 PM 30.9 °F 23.5 °F 27.0 °F 85% 29.65 in 1.8 mi NW 8.1 mph - 0.01 in Snow Light Snow
10:04 PM 30.2 °F 21.3 °F 26.6 °F 86% 29.64 in 2.0 mi NW 10.4 mph 16.1 mph 0.01 in Snow Light Snow
10:29 PM 30.2 °F 22.6 °F 26.6 °F 86% 29.65 in 1.8 mi NW 8.1 mph - 0.02 in Snow Light Snow
10:53 PM 30.9 °F 25.2 °F 27.0 °F 85% 29.66 in 1.5 mi Variable 5.8 mph - 0.02 in Snow Light Snow
11:53 PM 30.9 °F 26.2 °F 27.0 °F 85% 29.68 in 1.8 mi Variable 4.6 mph - 0.02 in Snow Light Snow